Location: Dammartin
(48.9032°N, 1.6195°E)
Time: 14:46:03
(UTC+00:00)

CZ-4C R/B - Pass Details

Date: 03 February 2023
Orbit: 456 x 611 km, 98.1° (Epoch: 29 March)

Event Time Altitude Azimuth Distance (km) Brightness Sun altitude
Rises 18:05:33 0° 16° (NNE) 2,721 6.6 -12.0°
Reaches altitude 10° 18:07:45 10° 19° (NNE) 1,796 5.7 -12.4°
Maximum altitude 18:11:36 68° 103° (ESE) 559 3.1 -13.0°
Drops below altitude 10° 18:15:13 10° 186° (S) 1,689 6.0 -13.6°
Sets 18:17:14 0° 189° (S) 2,543 7.0 -13.9°
